GEFSSGP_con_cape1000_240.txt.gz
Probability
42 45 55 84 81 52 6 3 3 6 0 0 0 3 3 0 3 10 3 3 6 6 10 35 48 48 39 39 39 42 39 42 39 39 35 39 42 39 39 32 35 42 39 35 42 42 39 42 45
52 45 58 81 58 10 0 3 13 6 0 0 0 3 6 0 0 0 0 3 3 0 6 19 45 48 42 32 35 35 39 39 42 39 39 42 42 39 32 35 35 35 35 39 39 39 35 39 42
45 26 55 68 19 3 0 10 16 3 0 0 0 3 0 0 0 0 3 6 0 3 3 23 39 39 32 35 32 35 35 42 42 42 42 39 42 35 35 35 35 39 29 29 35 35 32 32 32
32 61 45 32 3 0 6 10 13 0 0 0 3 3 3 3 0 0 0 3 3 0 10 19 35 23 23 19 19 26 32 39 42 42 42 42 35 35 32 32 29 32 26 26 29 32 26 23 26
45 55 26 3 0 0 10 10 6 0 0 0 3 0 3 3 3 0 0 3 0 0 6 10 35 26 19 19 26 29 26 35 35 39 39 32 32 32 29 26 23 23 23 23 26 26 23 19 19
55 39 13 0 0 0 6 6 0 0 0 0 3 3 6 6 6 3 0 0 3 0 6 10 26 26 26 26 29 32 29 35 32 29 29 32 29 29 32 26 23 13 19 19 26 23 19 19 19
32 16 3 0 0 0 0 3 0 0 0 0 0 0 6 6 13 10 6 3 0 0 3 3 13 19 26 26 29 29 29 23 19 23 29 32 32 29 29 23 19 13 13 13 26 23 19 16 16
32 16 0 0 0 0 0 6 0 0 0 0 0 0 6 6 6 13 10 6 3 3 3 0 3 3 10 16 23 23 16 16 23 13 23 26 26 23 26 19 16 13 16 16 16 16 16 13 16
10 16 3 0 0 0 3 3 0 0 0 0 6 6 6 6 3 10 6 6 3 0 0 0 3 6 3 3 13 16 19 23 16 13 19 13 6 3 6 6 6 10 10 10 13 13 16 10 13
16 13 0 0 0 0 3 3 3 0 0 0 6 10 6 3 3 3 3 3 3 0 0 3 3 3 3 6 6 6 6 6 3 3 3 0 0 0 0 6 10 6 6 10 16 16 16 10 10
3 6 3 6 3 3 6 3 0 0 3 0 3 6 6 3 3 0 3 3 3 0 0 0 0 3 3 3 3 3 6 6 3 0 0 0 0 0 0 0 0 0 0 6 10 10 6 6 6
3 3 3 3 6 3 0 0 0 0 0 3 3 3 3 3 3 0 0 3 3 3 0 0 0 0 3 3 3 3 3 3 3 0 0 0 0 0 0 0 0 0 3 6 3 3 0 3 3
0 3 3 6 6 3 0 0 0 0 0 3 3 3 0 0 0 0 0 0 3 3 0 0 0 0 0 0 0 3 3 3 0 0 0 0 0 0 0 0 0 0 0 0 0 0 0 0 3
0 0 3 3 3 0 0 0 0 0 0 0 3 3 3 0 3 0 0 0 0 3 0 0 0 0 0 0 0 0 0 0 0 0 0 0 0 0 0 0 0 0 0 0 0 0 0 0 0
3 3 3 3 3 0 0 0 0 0 0 0 0 3 3 3 3 0 0 0 0 0 0 0 0 0 0 0 0 0 0 0 0 0 0 0 0 0 0 0 0 0 0 0 0 0 0 0 0
0 0 0 0 0 0 0 0 0 0 0 0 0 0 3 3 3 3 3 0 0 0 0 0 0 0 0 0 0 0 0 0 0 0 0 0 0 0 0 0 0 3 0 0 0 0 0 0 0
0 0 0 0 0 0 0 0 0 0 0 0 0 0 0 0 0 0 3 3 0 0 0 0 0 0 0 0 0 0 0 0 0 0 0 0 0 0 0 0 0 3 3 3 0 0 0 0 0
0 0 0 0 0 0 0 0 0 0 0 0 0 0 0 0 0 0 0 3 3 0 0 0 0 0 0 0 0 3 3 3 3 3 0 0 0 3 3 3 3 3 3 3 0 0 0 0 0
0 0 0 0 0 0 0 0 0 0 0 3 3 0 0 0 0 0 0 0 3 3 0 0 0 0 0 0 0 0 0 0 0 0 0 3 0 3 3 3 3 3 3 3 3 3 3 0 0
0 0 0 0 0 0 0 0 0 0 0 0 3 3 0 0 0 0 0 0 0 3 3 0 0 0 0 0 0 0 0 0 0 0 0 0 0 0 3 3 3 3 3 6 6 3 3 3 0
0 0 0 0 0 0 0 0 0 0 0 0 0 3 3 0 0 0 0 0 0 0 3 3 3 0 0 0 0 0 0 0 0 0 0 0 0 0 0 0 3 3 3 3 6 3 3 3 3
0 0 0 0 0 0 0 0 0 0 0 0 0 0 3 3 0 0 0 0 0 0 0 3 3 3 3 0 0 0 3 3 0 0 0 3 3 0 0 0 0 3 3 6 6 6 6 3 3
0 0 0 0 0 0 0 0 0 0 0 0 0 0 0 3 3 0 0 0 0 0 0 3 3 3 3 0 3 0 0 0 0 0 0 0 0 0 0 0 0 0 3 3 6 3 3 6 3
0 0 0 0 0 0 0 0 0 0 0 0 0 0 0 0 3 3 0 0 0 0 0 0 0 3 3 3 0 3 0 0 0 0 3 3 3 3 3 0 3 3 6 0 6 6 3 6 6
0 0 0 0 0 0 0 0 0 0 0 0 0 0 0 0 3 3 3 3 3 3 0 0 0 0 3 3 3 3 0 3 3 0 3 3 3 3 3 3 3 3 3 3 3 6 6 6 6
0 0 0 0 0 0 0 0 0 0 0 0 0 0 0 0 0 3 3 6 10 10 10 3 3 6 6 3 3 3 3 6 6 6 6 3 3 3 3 3 3 3 3 3 3 3 6 6 6
0 0 0 0 0 0 0 0 0 0 0 0 0 0 0 0 3 3 6 10 6 10 13 6 6 6 3 3 3 3 6 6 6 3 3 3 3 3 3 3 3 3 3 3 3 3 3 6 6
0 0 0 0 0 0 0 0 0 0 0 0 0 0 0 0 6 3 6 6 6 3 6 3 10 6 6 3 0 6 6 6 6 3 3 3 3 3 3 3 3 3 3 3 3 3 3 3 3
0 0 0 0 0 0 0 0 0 0 0 0 0 0 0 0 3 3 3 6 6 6 3 10 6 6 6 6 6 3 3 6 6 3 3 3 0 0 0 0 0 0 0 0 0 0 0 0 0
0 0 0 0 0 0 0 0 0 0 0 0 0 0 0 0 0 3 3 3 6 6 3 3 10 6 6 6 6 6 6 10 6 3 0 0 0 0 0 0 0 0 0 0 0 0 0 0 0

GEFSSGP_con_cape1000_246.txt.gz
Probability
35 26 19 3 0 0 0 0 0 0 0 0 0 0 0 0 0 0 0 3 3 16 35 42 45 42 42 45 42 42 39 45 42 39 42 39 39 42 39 35 39 42 39 32 32 35 39 35 42
29 29 6 0 0 0 0 0 0 0 0 0 0 0 0 0 0 0 3 3 6 10 23 35 39 39 39 42 35 39 39 45 45 45 45 42 39 39 42 35 35 39 39 32 29 23 29 32 35
29 29 3 0 0 0 0 0 0 0 0 0 0 0 0 0 0 0 3 3 10 13 23 35 39 35 39 42 35 35 45 45 42 45 48 45 39 42 35 32 32 32 29 29 23 26 26 23 35
13 6 0 0 0 0 0 0 0 0 6 0 0 0 0 0 0 0 3 3 3 13 23 39 39 32 35 35 35 39 42 45 45 45 45 45 39 39 39 32 29 26 26 23 23 26 29 29 32
3 0 0 0 0 0 0 0 0 0 0 0 0 0 0 0 0 0 0 0 0 10 26 29 39 35 35 35 39 32 32 35 39 42 45 39 42 32 26 29 23 19 16 19 26 23 29 26 29
0 0 0 0 0 0 0 0 0 0 0 0 0 0 0 0 0 0 0 0 0 10 19 23 35 39 42 39 39 39 32 32 32 35 35 32 35 32 26 26 23 23 13 13 19 19 26 23 19
0 0 0 0 0 0 0 0 0 0 0 3 0 0 0 0 0 0 0 0 0 0 6 13 23 26 35 32 29 32 32 29 29 35 29 29 32 32 23 23 19 13 16 10 13 16 26 29 23
0 0 0 0 0 0 0 0 0 0 0 3 0 0 0 0 0 0 0 0 0 0 0 0 10 13 13 23 29 26 23 23 23 23 29 26 26 26 19 16 13 10 10 10 10 16 16 16 19
0 0 0 0 0 0 0 0 0 0 0 3 3 0 0 0 0 0 0 0 0 0 0 0 0 0 0 6 19 16 19 19 19 16 19 10 3 6 6 16 16 6 6 6 10 13 13 16 16
0 0 0 0 0 0 0 0 0 0 0 0 3 3 3 0 0 0 0 0 0 0 3 3 3 3 3 3 6 3 3 3 3 0 6 0 0 0 0 6 16 13 6 6 6 13 6 3 0
0 0 0 0 0 0 0 0 0 0 0 0 0 0 0 0 0 0 0 0 0 0 3 0 3 3 3 3 3 3 0 0 0 0 0 0 0 0 0 0 3 3 3 3 6 6 3 3 0
0 0 0 0 0 0 0 0 0 0 0 0 0 0 0 0 0 0 0 0 0 0 0 0 0 3 3 3 3 3 0 0 0 0 0 0 0 0 0 0 0 0 0 0 0 0 0 0 0
0 0 0 0 0 0 0 0 3 3 0 0 0 0 0 0 0 0 0 0 0 0 0 0 0 0 0 0 3 3 0 0 0 0 0 0 0 0 0 0 0 0 0 0 0 0 0 0 0
0 0 0 0 0 0 0 0 3 3 3 0 3 0 0 0 0 0 0 0 0 0 0 0 0 0 0 0 0 0 0 0 0 0 0 0 0 0 0 0 0 0 0 0 0 0 0 0 0
0 0 0 0 0 0 0 0 3 3 3 3 3 0 0 0 0 0 0 0 0 0 0 0 0 0 0 0 0 0 0 0 0 0 0 0 0 0 0 0 0 0 0 0 0 0 0 0 0
0 0 0 0 0 0 0 0 0 3 3 3 3 3 0 0 0 0 0 0 0 0 0 0 0 0 0 0 0 0 0 0 0 0 0 0 0 0 0 0 0 0 0 0 0 0 0 0 0
0 0 0 0 0 0 0 0 0 0 3 3 3 3 0 0 0 0 0 0 0 0 0 0 0 0 0 0 0 0 0 0 0 0 0 0 0 0 0 0 0 0 0 0 0 0 0 0 0
0 0 0 0 0 0 0 0 0 0 0 0 0 3 0 0 0 0 0 0 0 0 0 0 0 0 0 0 0 0 0 0 0 0 0 0 0 0 0 0 0 0 0 0 0 0 0 0 0
0 0 0 0 0 0 0 0 0 0 0 0 0 0 0 0 0 0 0 0 0 0 0 0 0 0 0 0 0 0 0 0 0 0 0 0 0 0 0 0 0 0 0 0 0 0 0 0 0
0 0 0 0 0 0 0 0 0 0 0 0 0 0 0 0 0 0 0 0 0 0 0 0 0 0 0 0 0 0 0 0 0 0 0 0 0 0 0 0 0 0 0 0 0 0 0 0 0
0 0 0 0 0 0 0 0 0 0 0 0 0 0 0 0 0 0 0 0 0 0 0 0 0 0 0 0 0 0 0 0 0 0 0 0 0 0 0 0 0 0 0 0 0 0 0 0 0
0 0 0 0 0 0 0 0 0 0 0 0 0 0 0 0 0 0 0 0 0 0 0 0 0 0 0 0 0 0 0 0 0 0 0 0 0 0 0 0 0 0 0 0 0 0 0 0 0
0 0 0 0 0 0 0 0 0 0 0 0 0 0 0 0 0 0 0 0 0 0 0 0 0 0 0 0 0 0 0 0 0 0 0 0 0 0 0 0 0 0 0 0 0 0 0 0 0
0 0 0 0 0 0 0 0 0 0 0 0 0 0 0 0 0 0 0 0 0 0 0 0 0 0 0 0 0 0 0 0 0 0 0 0 0 0 0 0 0 0 0 0 0 0 0 0 0
0 0 0 0 0 0 0 0 0 0 0 0 0 0 0 0 0 0 0 0 0 0 0 0 0 0 0 0 0 0 0 0 0 0 0 0 0 0 0 0 0 0 0 0 0 0 0 0 0
0 0 0 0 0 0 0 0 0 0 0 0 0 0 0 0 0 0 0 0 0 0 0 0 0 0 0 0 0 0 0 0 0 0 0 0 0 0 0 0 0 0 0 0 0 0 0 0 0
0 0 0 0 0 0 0 0 0 0 0 0 0 0 0 0 0 0 0 0 0 0 0 0 0 0 0 0 0 0 0 0 0 0 0 0 0 0 0 0 0 0 0 0 0 0 0 0 0
0 0 0 0 0 0 0 0 0 0 0 0 0 0 0 0 0 0 0 0 0 0 0 0 0 0 0 0 0 0 0 0 0 0 0 0 0 0 0 0 0 0 0 0 0 0 0 0 0
0 0 0 0 0 0 0 0 0 0 0 0 0 0 0 0 0 0 0 0 0 0 0 0 0 0 0 0 0 0 0 0 0 0 0 0 0 0 0 0 0 0 0 0 0 0 0 0 0
0 0 0 0 0 0 0 0 0 0 0 0 0 0 0 0 0 0 0 0 0 0 0 0 0 0 0 0 0 0 0 0 0 0 0 0 0 0 0 0 0 0 0 0 0 0 0 0 0

GEFSSGP_con_cape1000_252.txt.gz
Probability
32 13 0 0 0 0 0 0 0 0 0 0 0 0 0 0 0 0 0 0 3 3 13 32 45 45 42 39 39 45 45 48 42 52 48 45 45 45 39 42 35 32 39 39 48 48 39 45 45
19 13 3 0 0 0 0 0 0 0 0 0 0 0 0 0 0 0 0 3 3 6 13 32 42 42 39 39 45 48 39 42 45 45 45 42 45 45 45 39 32 35 39 39 39 39 35 48 45
16 6 0 0 0 0 0 0 0 0 0 0 0 0 0 0 0 0 0 3 3 10 13 29 39 39 42 45 45 42 39 45 45 45 45 48 48 52 48 39 35 32 32 39 29 29 35 35 32
0 0 0 0 0 0 0 0 0 0 0 0 0 0 0 0 0 0 3 3 6 10 13 26 35 35 32 39 42 39 42 42 45 48 48 52 52 39 39 39 35 29 26 29 26 26 23 29 35
0 0 0 0 0 0 0 0 0 0 0 0 0 0 0 0 0 3 3 3 6 10 13 23 35 32 39 32 35 39 39 39 39 42 42 45 32 32 35 39 29 26 23 23 19 23 23 26 23
0 0 0 0 0 0 0 0 0 0 0 0 0 0 0 0 3 3 3 3 6 6 10 19 26 26 32 29 26 35 35 35 32 29 39 35 26 26 29 29 23 16 19 16 23 26 16 19 26
0 0 0 0 0 0 0 0 0 0 0 0 0 0 0 0 0 3 3 3 6 6 6 10 16 19 23 26 26 29 29 29 29 26 29 26 29 26 23 23 16 13 13 19 19 19 19 19 23
0 0 0 0 0 0 0 0 0 0 0 0 0 0 0 0 0 0 0 0 3 6 6 6 6 6 10 13 19 19 23 19 23 23 23 23 16 13 13 13 13 13 16 13 16 19 16 16 19
0 0 0 0 0 0 0 0 0 0 0 3 0 0 0 0 0 0 0 0 0 3 3 6 0 0 6 6 6 13 13 13 10 6 13 6 3 3 6 10 13 13 13 13 16 16 10 6 13
0 0 0 0 0 0 0 0 0 0 0 0 0 0 0 0 0 0 0 0 0 0 0 0 0 0 0 6 0 0 6 3 0 0 3 0 0 0 0 3 10 6 6 10 10 13 6 3 0
0 0 0 0 0 0 0 0 0 0 0 0 0 0 0 0 0 0 0 0 0 0 0 0 0 0 0 0 0 0 0 0 0 0 0 0 0 0 0 0 0 3 3 3 3 3 3 0 0
0 0 0 0 0 0 0 0 0 0 0 0 0 0 0 0 0 0 0 0 0 0 0 0 0 0 0 0 0 0 0 0 0 0 0 0 0 0 0 0 0 0 0 0 0 0 3 0 0
0 0 0 0 0 0 0 0 0 0 0 0 0 0 0 0 0 0 0 0 0 0 0 0 0 0 0 0 0 0 0 0 0 0 0 0 0 0 0 0 0 0 0 0 0 0 0 0 0
0 0 0 0 0 0 0 0 0 0 0 0 0 0 0 0 0 0 0 0 0 0 0 0 0 0 0 0 0 0 0 0 0 0 0 0 0 0 0 0 0 0 0 0 0 0 0 0 0
0 0 0 0 0 0 0 0 0 0 0 0 0 0 0 0 0 0 0 0 0 0 0 0 0 0 0 0 0 0 0 0 0 0 0 0 0 0 0 0 0 0 0 0 0 0 0 0 0
0 0 0 0 0 0 0 0 0 0 0 0 0 0 0 0 0 0 0 0 0 0 0 0 0 0 0 0 0 0 0 0 0 0 0 0 0 0 0 0 0 0 0 0 0 0 0 0 0
0 0 0 0 0 0 0 0 0 0 0 0 0 0 0 0 0 0 0 0 0 0 0 0 0 0 0 0 0 0 0 0 0 0 0 0 0 0 0 0 0 0 0 0 0 0 0 0 0
0 0 0 0 0 0 0 0 0 0 0 0 0 0 0 0 0 0 0 0 0 0 0 0 0 0 0 0 0 0 0 0 0 0 0 0 0 0 0 0 0 0 0 0 0 0 0 0 0
0 0 0 0 0 0 0 0 0 0 0 0 0 0 0 0 0 0 0 0 0 0 0 0 0 0 0 0 0 0 0 0 0 0 0 0 0 0 0 0 0 0 0 0 0 0 0 0 0
0 0 0 0 0 0 0 0 0 0 0 0 0 0 0 0 0 0 0 0 0 0 0 0 0 0 0 0 0 0 0 0 0 0 0 0 0 0 0 0 0 0 0 0 0 0 0 0 0
0 0 0 0 0 0 0 0 0 0 0 0 0 0 0 0 0 0 0 0 0 0 0 0 0 0 0 0 0 0 0 0 0 0 0 0 0 0 0 0 0 0 0 0 0 0 0 0 0
0 0 0 0 0 0 0 0 0 0 0 0 0 0 0 0 0 0 0 0 0 0 0 0 0 0 0 0 0 0 0 0 0 0 0 0 0 0 0 0 0 0 0 0 0 0 0 0 0
0 0 0 0 0 0 0 0 0 0 0 0 0 0 0 0 0 0 0 0 0 0 0 0 0 0 0 0 0 0 0 0 0 0 0 0 0 0 0 0 0 0 0 0 0 0 0 0 0
0 0 0 0 0 0 0 0 0 0 0 0 0 0 0 0 0 0 0 0 0 0 0 0 0 0 0 0 0 0 0 0 0 0 0 0 0 0 0 0 0 0 0 0 0 0 0 0 0
0 0 0 0 0 0 0 0 0 0 0 0 0 0 0 0 0 0 0 0 0 0 0 0 0 0 0 0 0 0 0 0 0 0 0 0 0 0 0 0 0 0 0 0 0 0 0 0 0
0 0 0 0 0 0 0 0 0 0 0 0 0 0 0 0 0 0 0 0 0 0 0 0 0 0 0 0 0 0 0 0 0 0 0 0 0 0 0 0 0 0 0 0 0 0 0 0 0
0 0 0 0 0 0 0 0 0 0 0 0 0 0 0 0 0 0 0 0 0 0 0 0 0 0 0 0 0 0 0 0 0 0 0 0 0 0 0 0 0 0 0 0 0 0 0 0 0
0 0 0 0 0 0 0 0 0 0 0 0 0 0 0 0 0 0 0 0 0 0 0 0 0 0 0 0 0 0 0 0 0 0 0 0 0 0 0 0 0 0 0 0 0 0 0 0 0
0 0 0 0 0 0 0 0 0 0 0 0 0 0 0 0 0 0 0 0 0 0 0 0 0 0 0 0 0 0 0 0 0 0 0 0 0 0 0 0 0 0 0 0 0 0 0 0 0
0 0 0 0 0 0 0 0 0 0 0 0 0 0 0 0 0 0 0 0 0 0 0 0 0 0 0 0 0 0 0 0 0 0 0 0 0 0 0 0 0 0 0 0 0 0 0 0 0

GEFSSGP_con_cape1000_258.txt.gz
Probability
32 32 26 13 13 3 0 3 3 3 0 0 0 0 0 0 0 10 3 0 3 3 13 29 42 39 32 42 45 52 48 48 48 45 45 45 45 45 45 45 42 39 42 42 35 39 42 52 42
29 32 10 13 6 0 3 0 10 3 3 0 0 0 0 3 0 0 3 0 3 3 16 13 39 35 42 45 45 45 42 39 48 45 45 48 48 48 48 45 39 39 39 35 35 35 39 39 39
26 19 13 10 3 3 0 6 6 3 3 0 0 0 0 3 0 0 3 6 3 3 13 23 39 32 35 42 42 42 42 42 48 39 42 45 42 39 45 45 42 32 29 29 29 32 35 35 26
13 13 3 0 0 0 0 3 3 3 3 0 0 0 0 0 0 0 3 3 3 3 6 16 35 39 32 29 39 42 45 48 45 39 39 42 42 42 35 35 32 29 29 29 23 29 26 26 32
3 6 6 0 0 0 0 0 3 3 3 0 0 0 0 0 3 6 3 3 3 3 6 10 29 29 29 32 35 45 45 39 45 39 35 35 35 35 23 23 32 29 26 26 26 29 29 26 26
0 0 0 3 0 0 0 0 3 3 3 0 0 0 0 6 13 6 3 3 3 6 6 13 23 19 19 23 26 35 42 39 35 29 29 29 29 26 19 26 23 29 26 19 19 26 32 23 26
0 0 0 0 0 0 0 3 3 3 3 0 0 0 0 6 13 3 3 3 3 6 10 6 6 10 16 19 19 29 32 29 26 29 26 29 26 19 19 23 26 26 23 19 19 19 23 19 23
0 0 0 0 0 0 0 0 3 0 3 0 0 0 0 3 13 3 3 3 3 3 3 6 6 6 6 13 16 26 26 26 23 19 16 13 13 6 10 13 19 19 16 19 19 23 19 13 16
0 3 0 0 0 0 0 0 3 0 0 0 0 0 0 6 10 3 3 3 3 3 3 6 3 6 10 6 10 13 16 10 13 13 10 13 6 6 10 6 19 13 13 6 16 16 13 10 16
0 0 0 0 0 0 0 0 0 0 0 0 3 3 3 10 6 3 3 3 3 3 3 3 3 3 3 6 6 6 6 3 3 3 6 6 3 3 3 6 13 16 16 10 10 10 6 3 3
0 0 0 0 0 3 3 0 0 0 0 0 3 3 3 6 6 6 3 3 3 3 3 3 3 3 3 6 0 6 3 6 3 3 3 6 6 6 6 6 3 3 3 6 6 3 6 0 6
0 0 0 0 0 0 0 0 0 0 0 0 3 3 6 3 0 10 6 6 6 0 0 3 3 3 3 3 0 3 3 3 3 0 0 3 3 3 6 6 10 6 6 13 10 6 6 0 0
0 0 0 0 0 0 3 0 0 0 0 3 6 6 10 6 0 0 6 10 10 3 0 3 3 3 3 0 0 0 3 0 0 3 0 0 0 0 3 3 6 3 6 3 6 6 3 3 3
0 0 0 0 0 6 6 3 0 0 0 3 10 10 10 6 0 0 3 6 6 3 0 0 3 3 3 0 0 0 0 0 0 0 0 0 0 0 0 0 0 0 0 0 3 3 3 3 3
0 0 0 0 0 6 6 0 0 0 3 3 3 6 6 3 3 0 3 0 0 0 0 0 0 3 3 0 0 0 0 0 0 0 0 0 0 0 0 0 0 0 0 0 0 0 0 0 0
0 0 0 0 0 0 0 0 0 0 0 3 0 6 3 6 3 3 0 0 0 0 3 0 0 0 3 0 0 0 0 0 0 0 0 0 0 0 0 0 0 0 0 0 0 0 0 0 3
0 0 0 0 0 0 0 0 0 0 0 6 6 6 3 3 3 3 3 0 0 0 3 3 0 0 3 0 0 0 0 0 0 0 0 0 0 0 0 0 0 0 0 0 0 0 0 0 0
0 0 0 0 0 0 0 0 0 0 0 0 3 6 6 6 3 3 3 6 6 6 3 0 0 0 3 3 3 3 0 0 0 0 0 0 0 0 0 0 0 0 0 0 0 0 0 0 3
0 0 0 0 0 0 0 0 0 0 0 0 0 3 3 6 3 3 6 3 6 6 6 3 3 0 3 3 3 3 6 3 0 0 0 0 0 0 0 0 0 0 0 3 0 0 3 3 3
0 0 0 0 0 0 0 0 0 0 3 3 3 3 0 0 3 3 6 6 3 3 6 3 3 0 3 3 3 3 3 3 3 3 0 0 0 0 0 0 0 0 3 3 3 3 3 3 3
0 0 0 0 0 0 0 0 0 0 0 3 3 3 3 3 0 3 6 6 3 3 3 3 3 3 3 3 3 0 3 0 0 0 3 3 3 3 0 0 0 3 3 6 3 3 3 6 3
0 0 0 0 0 0 0 0 0 0 0 0 3 3 3 6 3 0 6 6 6 3 3 3 3 3 3 3 3 3 3 0 0 0 3 3 3 6 3 3 3 3 6 3 3 3 3 3 3
0 0 0 0 0 0 0 0 0 0 0 0 0 0 0 0 3 3 6 6 6 6 3 3 3 3 3 3 3 3 3 0 3 6 3 3 6 3 3 3 3 3 3 0 3 3 3 6 3
0 0 0 0 0 0 0 0 0 0 0 0 0 0 3 0 0 3 6 6 6 6 3 3 3 6 6 6 3 3 3 6 6 6 6 6 3 3 3 3 3 3 0 0 6 6 6 6 6
0 0 0 0 0 0 0 0 0 0 0 0 0 0 3 3 3 3 6 6 3 6 6 3 3 3 3 6 6 6 3 3 6 6 6 6 6 6 6 3 0 0 0 0 0 0 3 3 6
0 0 0 0 0 0 0 0 0 0 0 0 0 0 3 0 0 3 3 6 3 3 6 3 3 3 3 3 3 3 3 6 6 6 6 3 6 6 3 0 0 0 0 0 0 3 3 3 0
0 0 0 0 0 0 0 0 0 0 0 0 0 0 3 0 0 3 3 6 6 6 3 3 3 3 3 3 3 3 6 6 6 6 6 6 0 0 0 0 0 0 0 0 6 10 6 0 0
0 0 0 0 0 0 0 0 0 0 0 0 0 3 3 0 0 3 3 6 6 6 10 0 6 6 6 6 6 6 6 6 6 6 6 3 3 0 0 0 0 0 0 3 6 6 6 3 6
0 0 0 0 0 0 0 0 0 0 0 0 0 3 0 0 3 3 6 3 6 6 6 6 3 6 10 10 10 6 6 6 6 6 3 3 0 0 0 0 0 0 0 0 3 3 3 3 3
0 0 0 0 0 0 0 0 0 0 0 0 0 3 3 3 3 3 6 10 13 10 10 10 6 6 10 10 6 3 3 3 3 3 0 0 0 0 0 0 0 0 0 0 0 0 3 3 3

GEFSSGP_con_cape1000_264.txt.gz
Probability
52 45 55 84 81 52 10 13 16 13 0 0 0 0 10 3 10 10 16 6 6 13 13 23 35 35 48 58 58 58 52 45 52 52 48 48 45 39 42 42 39 35 32 42 39 45 39 39 35
35 35 65 77 48 10 10 19 19 13 3 0 0 0 6 6 3 3 6 10 10 13 10 13 39 39 52 58 61 58 52 52 48 45 45 45 39 39 39 39 32 29 23 39 35 35 32 29 32
42 35 58 61 13 10 6 16 13 6 0 0 0 3 6 10 6 3 6 6 6 6 6 19 39 42 48 48 55 52 45 45 42 45 45 42 35 39 35 42 32 32 32 29 32 35 35 32 26
35 55 32 19 6 6 6 6 6 6 3 0 0 6 13 10 6 3 3 3 6 6 13 19 42 39 42 42 45 45 42 42 42 35 32 32 35 32 29 32 32 29 29 35 32 32 26 32 29
39 48 16 10 3 3 6 6 6 6 3 0 0 10 10 13 6 3 3 3 10 13 13 10 45 42 35 35 39 39 42 42 42 39 32 29 29 32 32 29 26 23 29 32 35 32 29 19 32
61 26 10 6 3 3 3 3 3 3 3 0 3 13 10 13 13 6 3 3 3 6 6 10 39 35 29 35 35 32 32 32 35 29 35 23 19 23 23 19 26 29 29 32 29 35 29 26 26
39 19 3 0 3 3 0 0 0 3 3 3 0 13 10 13 19 3 0 6 3 6 3 3 6 16 29 32 42 35 35 35 32 29 26 23 23 19 16 19 13 16 19 13 23 29 26 23 29
32 23 3 0 0 0 0 0 0 3 3 0 0 10 13 16 10 6 3 3 3 3 3 3 6 10 10 16 29 26 29 29 29 23 19 23 19 16 19 10 19 19 13 13 16 16 19 23 29
6 19 0 0 0 0 0 0 0 3 6 0 3 6 19 13 10 6 3 3 3 0 3 3 6 6 6 10 13 16 16 16 13 13 19 13 10 3 6 10 16 16 10 10 13 13 16 16 19
13 0 0 0 0 0 0 0 0 0 3 3 3 6 13 13 13 10 6 3 0 0 0 0 3 3 3 6 6 6 3 3 3 3 3 6 3 3 3 13 13 10 13 13 16 13 6 6 3
0 0 3 0 0 0 0 0 3 0 3 3 3 6 10 13 13 10 10 6 0 0 0 0 0 3 3 6 6 6 0 0 0 0 0 0 0 0 3 3 3 3 3 3 6 3 3 3 3
0 0 0 0 0 0 0 0 3 0 3 3 6 6 6 10 13 13 13 10 6 0 0 0 0 3 3 6 0 0 0 0 0 0 0 0 0 0 0 3 0 3 3 3 0 0 0 0 3
0 0 0 0 0 0 0 0 3 3 6 6 10 6 6 6 13 10 13 10 10 6 3 6 3 3 3 3 0 0 0 0 0 0 0 0 0 0 0 0 0 0 3 3 3 0 0 0 0
0 0 0 0 0 0 0 0 0 3 3 3 6 10 10 6 3 10 10 6 6 6 6 3 0 0 3 3 3 0 0 0 0 0 0 0 0 0 0 0 0 0 0 0 0 0 0 0 3
0 0 0 0 0 0 0 0 0 0 3 3 6 10 13 10 10 10 10 6 6 6 3 3 0 0 0 3 3 0 0 0 0 0 0 0 0 0 0 0 0 0 0 0 0 0 0 0 0
0 0 0 0 0 0 0 0 0 0 0 3 6 10 13 13 10 10 13 3 3 3 3 3 0 0 0 3 3 0 0 0 0 0 0 0 0 0 0 0 0 0 0 0 0 0 0 0 0
0 0 0 0 0 0 0 0 0 0 0 0 6 13 13 13 13 13 10 6 0 3 3 3 0 0 0 0 3 3 0 0 0 0 0 0 0 0 0 0 0 0 0 0 0 0 0 0 0
0 0 0 0 0 0 0 0 0 0 0 0 3 6 13 13 6 6 10 0 3 3 3 3 3 0 0 0 3 3 0 0 0 0 0 0 0 0 0 0 0 0 0 0 0 0 3 3 3
0 0 0 0 0 0 0 0 0 0 0 0 3 6 6 6 6 6 6 0 0 0 3 3 3 0 0 3 3 6 0 0 0 0 0 0 0 0 0 0 0 0 0 0 0 0 0 3 0
0 0 0 0 0 0 0 0 0 0 0 0 3 10 6 3 6 6 3 3 0 0 0 3 0 0 0 3 3 6 6 6 3 0 0 0 0 0 0 0 0 0 0 3 3 0 3 3 3
0 0 0 0 0 0 0 0 0 0 0 0 3 6 6 3 3 6 3 3 3 3 0 0 3 0 3 0 0 0 0 3 0 3 3 3 0 0 0 0 0 0 0 0 0 0 3 3 3
0 0 0 0 0 0 0 0 0 3 3 0 3 6 6 10 6 3 3 3 6 6 3 0 3 3 0 0 0 0 0 0 0 3 3 0 0 0 3 0 0 3 0 0 0 0 3 3 3
0 0 0 0 0 0 0 0 0 3 3 3 3 6 6 10 10 10 6 10 6 6 3 3 3 3 0 0 0 3 0 0 0 3 3 0 0 0 3 0 0 0 3 0 0 0 0 0 3
0 0 0 0 0 0 0 0 0 0 0 0 3 3 3 10 10 10 3 10 6 6 6 3 3 6 3 0 0 0 0 0 0 0 0 0 3 0 0 0 0 0 0 0 0 0 0 0 0
0 0 0 0 0 0 0 0 0 0 0 0 0 3 3 3 10 10 3 6 6 6 10 6 3 3 3 6 0 3 0 0 3 3 3 3 3 3 0 0 0 0 0 0 0 0 0 0 0
0 0 0 0 0 0 0 0 0 0 0 0 0 3 3 6 6 6 3 6 6 6 10 10 6 3 6 6 6 6 3 3 3 3 3 3 3 0 0 0 0 0 0 0 0 0 0 0 0
0 0 0 0 0 0 0 0 0 0 0 0 3 3 3 6 10 6 10 6 6 6 6 10 3 3 10 6 3 3 3 6 6 3 6 0 0 0 0 0 0 0 0 0 0 0 0 0 0
0 0 0 0 0 0 0 0 0 0 0 0 3 3 3 3 10 6 10 6 6 10 10 6 3 0 0 6 6 10 6 10 10 10 6 3 0 0 0 0 0 0 0 0 0 3 0 0 0
0 0 0 0 0 0 0 0 0 0 0 0 0 3 3 3 6 13 10 6 6 6 10 6 6 3 0 3 6 6 6 6 10 3 3 3 3 0 0 0 0 0 0 0 0 3 0 0 0
0 0 0 0 0 0 0 0 0 0 0 0 0 0 3 3 6 10 6 6 6 6 6 6 3 6 6 3 6 6 6 10 3 3 3 3 3 0 0 0 0 0 0 0 0 0 0 0 0

GEFSSGP_con_cape1000_270.txt.gz
Probability
48 32 19 3 3 0 0 0 0 0 0 3 3 0 0 0 0 0 3 6 6 10 26 35 45 48 48 48 52 52 48 48 48 45 42 42 35 35 39 42 42 52 52 45 42 35 35 42 45
32 16 10 0 0 0 0 0 0 0 0 3 3 6 3 0 3 3 3 6 6 6 13 26 45 48 48 55 55 55 48 52 45 45 42 35 35 32 32 45 42 39 39 35 29 29 32 35 35
32 19 3 0 0 0 0 0 0 0 0 6 10 6 0 3 3 3 3 6 6 6 16 39 39 39 52 55 48 52 45 48 42 39 35 29 29 29 29 29 32 42 42 32 32 29 26 39 35
6 3 0 0 0 0 0 0 0 0 3 6 3 3 3 3 3 3 6 6 3 10 19 32 42 35 39 39 45 48 42 45 45 35 32 29 26 29 29 26 32 39 35 32 26 26 29 23 32
3 0 0 0 0 0 0 0 0 0 3 3 3 6 3 3 3 3 6 6 3 10 13 32 39 35 39 42 42 45 39 39 42 29 29 26 26 23 26 19 29 35 35 26 29 32 29 26 35
0 0 0 0 0 0 0 0 0 0 3 3 6 3 3 3 0 3 6 3 6 10 13 32 35 42 35 39 35 42 39 35 35 26 26 26 26 23 29 29 35 32 23 26 26 29 26 29 29
0 0 0 0 0 0 0 0 0 0 3 3 3 3 0 3 0 0 6 6 6 3 6 13 19 29 39 35 35 35 35 35 29 23 19 19 19 19 26 29 26 19 19 19 26 23 23 26 32
0 0 0 0 0 0 0 0 3 0 3 3 6 3 0 0 0 3 6 3 3 3 6 10 6 13 13 26 35 42 35 26 26 19 19 19 13 13 19 19 16 16 19 23 23 16 29 23 29
0 0 0 0 0 0 0 0 3 3 3 3 6 3 0 0 0 3 0 0 3 3 3 6 3 6 6 6 19 32 29 32 26 16 13 10 6 3 6 13 13 13 13 19 16 19 26 23 16
0 0 0 0 0 0 0 0 3 3 3 3 10 10 3 0 0 0 0 0 0 3 3 3 3 6 6 6 6 6 6 6 3 6 10 3 0 3 3 13 13 16 13 13 16 10 10 6 0
0 0 0 0 0 0 0 0 0 3 3 3 10 6 3 3 0 0 0 0 0 0 3 3 3 3 6 6 6 6 3 3 3 3 3 0 0 0 3 3 3 3 3 3 3 3 3 3 0
0 0 0 0 0 0 0 0 0 0 3 3 6 6 3 3 3 0 0 0 0 0 0 3 3 3 3 6 6 6 3 0 0 0 0 0 0 0 0 0 0 3 3 0 0 0 0 0 0
0 0 0 0 0 0 0 0 0 3 3 3 6 6 6 3 3 3 0 0 0 0 0 0 0 3 0 0 0 0 0 0 0 0 0 0 0 0 0 0 0 0 0 0 0 0 0 0 0
0 0 0 0 0 0 0 0 0 3 3 3 6 6 6 6 6 3 3 3 0 0 0 0 0 0 0 0 0 0 0 0 0 0 0 0 0 0 0 0 0 0 0 0 0 0 0 0 0
0 0 0 0 0 0 0 0 0 3 3 0 6 3 3 3 3 3 3 3 3 0 0 0 0 0 0 0 0 0 0 0 0 0 0 0 0 0 0 0 0 0 0 0 0 0 0 0 0
0 0 0 0 0 0 0 0 0 0 0 0 0 3 3 3 6 3 3 3 3 3 0 0 0 0 0 0 0 0 0 0 0 0 0 0 0 0 0 0 0 0 0 0 0 0 0 0 0
0 0 0 0 0 0 0 0 0 0 0 0 0 0 3 6 6 3 3 3 3 3 0 0 0 0 0 0 0 0 0 0 0 0 0 0 0 0 0 0 0 0 0 0 0 0 0 0 0
0 0 0 0 0 0 0 0 0 0 0 0 0 0 3 6 6 3 3 3 3 3 0 0 0 0 0 0 0 0 0 0 0 0 0 0 0 0 0 0 0 0 0 0 0 0 0 0 0
0 0 0 0 0 0 0 0 0 0 0 0 0 0 0 3 6 3 6 3 3 3 0 0 0 0 0 0 0 0 0 0 0 0 0 0 0 0 0 0 0 0 0 0 0 0 0 0 0
0 0 0 0 0 0 0 0 0 0 0 0 0 0 3 6 6 3 3 3 3 3 0 0 0 0 0 0 0 0 0 0 0 0 0 0 0 0 0 0 0 0 0 0 0 0 0 0 0
0 0 0 0 0 0 0 0 0 0 0 0 0 0 0 6 6 6 3 3 3 3 0 0 0 0 0 0 0 0 0 0 0 0 0 0 0 0 0 0 0 0 0 0 0 0 0 0 0
0 0 0 0 0 0 0 0 0 0 0 3 0 0 0 0 6 3 3 3 3 3 3 0 0 0 0 0 0 0 0 0 0 0 0 0 0 0 0 0 0 0 0 0 0 0 0 0 0
0 0 0 0 0 0 0 0 0 0 0 0 0 0 0 0 0 3 0 3 3 3 3 0 0 0 0 0 0 0 0 0 0 0 0 0 0 0 0 0 0 0 0 0 0 0 0 0 0
0 0 0 0 0 0 0 0 0 0 0 0 3 3 0 0 0 3 3 0 0 0 3 0 0 0 0 0 0 0 0 0 0 0 0 0 0 0 0 0 0 0 0 0 0 0 0 0 0
0 0 0 0 0 0 0 0 0 0 0 0 3 3 0 0 0 0 3 0 0 0 3 0 0 0 0 0 0 0 0 0 0 0 0 0 0 0 0 0 0 0 0 0 0 0 0 0 0
0 0 0 0 0 0 0 0 0 0 0 0 3 3 3 3 0 0 3 0 0 0 3 0 0 0 0 0 0 0 0 0 0 0 0 0 0 0 0 0 0 0 0 0 0 0 0 0 0
0 0 0 0 0 0 0 0 0 0 0 3 3 3 3 3 3 0 3 3 0 0 0 0 0 0 0 0 0 0 0 0 0 0 0 0 0 0 0 0 0 0 0 0 0 0 0 0 0
0 0 0 0 0 0 0 0 0 0 0 0 3 3 3 3 3 0 0 3 0 0 0 0 0 0 0 0 0 0 0 0 0 0 0 0 0 0 0 0 0 0 0 0 0 0 0 0 0
0 0 0 0 0 0 0 0 0 0 0 0 0 3 3 3 3 3 0 3 3 3 0 0 0 0 0 0 0 0 0 0 0 0 0 0 0 0 0 0 0 0 0 0 0 0 0 0 0
0 0 0 0 0 0 0 0 0 0 0 0 0 3 3 3 3 3 0 0 0 0 0 0 0 0 0 0 0 0 0 0 0 0 0 0 0 0 0 0 0 0 0 0 0 0 0 0 0

GEFSSGP_con_cape1000_276.txt.gz
Probability
45 16 3 0 0 0 0 0 0 0 0 0 0 0 0 0 0 0 0 0 6 10 13 26 39 39 42 39 42 48 45 35 32 42 42 39 42 45 45 39 45 39 35 42 39 35 42 45 48
26 10 0 0 0 0 0 0 0 0 0 0 0 0 0 0 0 0 0 6 10 10 19 23 39 39 42 39 39 32 39 39 39 39 39 32 26 35 42 42 45 39 35 35 35 35 39 39 42
19 3 0 0 0 0 0 0 0 0 0 3 0 0 0 0 3 3 0 6 6 10 16 29 35 32 42 42 42 42 42 42 39 35 32 32 26 26 39 45 35 32 32 32 39 39 39 48 48
0 0 0 0 0 0 0 0 0 3 3 0 0 0 0 3 3 3 6 6 3 3 10 26 32 32 45 39 39 42 42 35 35 32 29 26 23 26 32 32 29 29 23 29 32 32 32 39 42
0 0 0 0 0 0 0 0 0 3 3 3 0 0 0 3 3 3 6 6 3 3 16 23 29 32 35 35 39 39 35 32 32 26 23 23 23 29 29 35 32 26 32 23 29 32 35 26 29
0 0 0 0 0 0 0 0 0 3 3 0 3 0 0 3 3 6 6 3 3 6 16 19 35 32 32 32 39 35 32 32 26 26 26 19 23 29 29 26 26 26 23 26 32 32 29 32 32
0 0 0 0 0 0 0 0 0 3 0 0 3 0 0 3 6 6 6 3 3 10 6 6 10 13 26 29 32 32 32 29 23 19 19 16 19 19 23 23 19 19 23 32 29 35 32 35 35
0 0 0 0 0 0 0 0 0 3 3 6 3 0 0 0 6 6 6 3 3 3 3 6 10 10 10 16 23 26 23 16 16 16 16 13 13 19 23 16 23 13 16 16 16 26 29 32 32
0 0 0 0 0 0 0 0 0 3 3 6 6 0 0 0 6 6 6 3 3 3 3 3 3 3 6 6 10 6 13 10 10 6 10 6 3 6 10 16 16 13 16 19 19 26 26 23 23
0 0 0 0 0 0 0 0 0 0 3 3 3 3 3 3 6 6 6 6 3 3 3 3 3 3 3 6 6 6 6 6 6 3 3 3 3 3 3 10 13 16 16 19 19 19 10 0 0
0 0 0 0 0 0 0 0 0 0 0 3 0 0 3 6 6 6 6 6 6 3 3 3 3 3 3 6 6 3 3 3 3 0 0 0 0 0 3 3 3 3 3 3 3 3 3 0 0
0 0 0 0 0 0 0 0 0 0 0 0 0 3 6 6 3 3 6 6 6 3 3 3 3 3 3 3 6 3 3 0 0 0 0 0 0 0 0 0 0 3 3 3 3 3 0 0 0
0 0 0 0 0 0 0 0 0 0 3 0 3 3 6 6 3 3 3 3 0 3 3 3 3 3 3 3 0 0 0 0 0 0 0 0 0 0 0 0 0 0 0 0 0 0 0 0 0
0 0 0 0 0 0 0 0 0 0 3 3 0 0 3 3 0 0 0 3 3 0 3 3 3 3 3 3 0 0 0 0 0 0 0 0 0 0 0 0 0 0 0 0 0 0 0 0 0
0 0 0 0 0 0 0 0 0 0 3 6 3 0 3 3 0 0 0 0 0 0 0 3 3 3 3 0 0 0 0 0 0 0 0 0 0 0 0 0 0 0 0 0 0 0 0 0 0
0 0 0 0 0 0 0 0 0 0 3 0 0 0 0 3 3 0 0 0 0 0 0 0 3 3 3 0 0 0 0 0 0 0 0 0 0 0 0 0 0 0 0 0 0 0 0 0 0
0 0 0 0 0 0 0 0 0 0 0 0 0 0 0 3 3 3 3 3 0 0 0 0 0 0 3 0 0 0 0 0 0 0 0 0 0 0 0 0 0 0 0 0 0 0 0 0 0
0 0 0 0 0 0 0 0 0 0 0 0 0 0 0 0 3 3 3 3 3 0 0 0 0 0 0 0 0 0 0 0 0 0 0 0 0 0 0 0 0 0 0 0 0 0 0 0 0
0 0 0 0 0 0 0 0 0 0 0 0 0 0 0 0 3 3 3 3 3 3 0 3 0 0 0 0 0 0 0 0 0 0 0 0 0 0 0 0 0 0 0 0 0 0 0 0 0
0 0 0 0 0 0 0 0 0 0 0 0 0 0 0 0 0 3 3 3 3 3 0 0 0 0 0 0 0 0 0 0 0 0 0 0 0 0 0 0 0 0 0 0 0 0 0 0 0
0 0 0 0 0 0 0 0 0 0 0 0 0 0 0 0 0 3 3 3 3 3 3 3 0 0 0 0 0 0 0 0 0 0 0 0 0 0 0 0 0 0 0 0 0 0 0 0 0
0 0 0 0 0 0 0 0 0 0 0 0 0 0 0 0 0 0 3 3 3 3 3 3 3 0 0 0 0 0 0 0 0 0 0 0 0 0 0 0 0 0 0 0 0 0 0 0 0
0 0 0 0 0 0 0 0 0 0 0 0 0 0 0 0 0 0 3 3 3 3 3 0 3 0 0 0 0 0 0 0 0 0 0 0 0 0 0 0 0 0 0 0 0 0 0 0 0
0 0 0 0 0 0 0 0 0 0 0 0 0 0 0 0 0 0 0 3 3 3 3 6 3 0 0 0 0 0 0 0 0 0 0 0 0 0 0 0 0 0 0 0 0 0 0 0 0
0 0 0 0 0 0 0 0 0 0 0 0 0 0 0 0 0 0 0 0 0 0 3 3 3 0 0 0 0 0 0 0 0 0 0 0 0 0 0 0 0 0 0 0 0 0 0 0 0
0 0 0 0 0 0 0 0 0 0 0 0 0 0 0 0 0 0 0 0 0 0 0 0 0 0 0 0 0 0 0 0 0 0 0 0 0 0 0 0 0 0 0 0 0 0 0 0 0
0 0 0 0 0 0 0 0 0 0 0 0 3 3 0 0 0 0 0 0 0 0 0 0 0 0 0 0 0 0 0 0 0 0 0 0 0 0 0 0 0 0 0 0 0 0 0 0 0
0 0 0 0 0 0 0 0 0 0 0 0 0 0 3 0 0 0 0 0 0 0 0 0 0 0 0 0 0 0 0 0 0 0 0 0 0 0 0 0 0 0 0 0 0 0 0 0 0
0 0 0 0 0 0 0 0 0 0 0 0 0 0 0 0 3 0 0 0 0 0 0 0 0 0 0 0 0 0 0 0 0 0 0 0 0 0 0 0 0 0 0 0 0 0 0 0 0
0 0 0 0 0 0 0 0 0 0 0 0 0 0 0 0 0 0 0 0 0 0 0 0 0 0 0 0 0 0 0 0 0 0 0 0 0 0 0 0 0 0 0 0 0 0 0 0 0

GEFSSGP_con_cape1000_282.txt.gz
Probability
39 42 35 32 19 3 0 6 6 6 0 0 0 3 3 3 3 6 3 3 3 10 16 26 32 29 35 35 32 39 35 32 29 39 42 48 45 42 45 35 42 29 32 35 35 32 29 29 32
39 32 16 16 6 0 0 6 6 6 3 3 3 0 0 0 3 3 3 3 6 10 16 16 29 32 32 32 32 32 32 32 35 39 39 35 35 39 35 39 39 42 39 35 29 32 32 29 23
26 16 13 10 3 0 0 3 10 3 3 3 3 3 0 0 3 3 3 6 6 6 13 23 35 35 32 29 32 35 32 29 26 32 26 32 32 29 29 29 35 32 29 29 29 39 32 29 26
19 10 6 10 3 0 0 3 10 10 10 6 3 0 0 3 3 3 6 6 6 6 16 19 35 32 35 39 39 35 32 32 32 35 39 32 29 29 29 23 26 23 26 29 29 35 32 35 32
6 6 6 0 0 3 3 3 10 6 10 10 3 0 3 10 6 3 6 6 6 10 13 16 35 35 35 32 32 35 35 35 32 32 29 23 29 26 29 32 26 23 26 26 29 32 35 29 26
6 6 0 0 0 3 3 6 6 6 3 6 3 0 6 10 6 10 6 6 6 6 10 13 26 26 26 32 35 32 32 26 23 19 29 23 26 23 26 16 19 19 29 26 26 32 32 32 32
3 0 0 0 0 3 3 3 3 3 3 3 0 0 6 10 10 6 6 6 6 6 10 13 16 16 23 26 26 26 32 26 19 19 19 23 26 26 19 16 13 16 19 23 19 16 23 19 19
3 3 0 0 0 3 3 3 3 6 0 6 0 0 3 13 13 6 6 6 6 6 10 6 3 3 6 13 23 19 19 19 19 19 23 16 13 10 16 13 16 19 23 16 19 19 26 23 19
0 0 0 0 0 3 3 6 6 6 3 3 6 10 3 13 10 13 13 6 6 6 10 6 3 3 3 6 6 10 13 13 13 10 13 13 10 6 10 10 16 16 16 19 26 19 19 19 13
6 0 0 0 0 3 3 3 6 6 3 3 3 10 16 13 10 13 13 6 6 6 6 6 10 3 3 3 6 10 6 6 3 6 6 6 10 10 6 6 16 16 16 19 16 19 13 10 13
0 0 0 0 0 0 3 3 3 3 3 6 6 3 16 16 16 13 13 6 10 6 10 6 6 3 3 6 6 13 10 10 3 3 6 6 6 10 16 10 13 10 6 13 10 10 10 6 10
0 0 0 0 3 3 3 3 3 6 6 6 3 10 13 19 16 13 10 10 10 10 10 10 6 3 3 3 6 6 6 3 3 3 6 6 10 3 3 3 10 10 10 13 13 10 10 10 6
0 0 0 0 0 0 3 3 3 0 6 3 3 6 10 13 13 13 13 10 10 10 10 10 10 6 3 3 10 3 6 3 3 6 3 3 6 3 3 3 6 6 6 10 13 10 3 3 6
0 0 0 0 0 0 3 3 0 0 3 3 10 13 6 10 13 13 13 13 13 13 13 13 13 10 3 10 10 6 6 6 3 6 3 0 6 6 3 3 3 6 6 0 0 0 0 6 6
0 0 0 0 0 0 3 0 0 0 3 3 3 10 10 6 13 13 10 13 13 13 13 13 13 10 6 6 6 6 6 6 3 6 3 0 3 3 3 3 3 3 3 0 0 0 3 0 0
0 0 0 0 0 0 0 0 0 0 6 6 6 10 10 16 10 13 13 13 10 10 10 13 10 6 6 6 6 6 6 3 3 6 3 0 0 3 3 3 3 3 3 3 3 0 0 0 3
0 0 0 0 0 0 0 0 0 0 3 3 6 13 6 16 16 19 19 16 10 10 10 13 10 6 6 6 6 6 6 6 6 3 6 3 0 0 3 3 0 0 3 3 0 0 0 0 0
0 0 0 0 0 0 0 0 0 0 0 0 3 3 6 10 16 19 23 16 13 10 6 6 10 6 6 10 6 6 6 6 6 6 3 3 3 0 0 0 0 0 3 3 3 0 3 3 3
0 0 0 0 0 0 0 0 0 0 0 0 6 6 10 10 10 19 19 16 6 6 10 6 13 13 13 13 10 10 3 3 6 3 3 3 3 3 0 0 3 3 3 3 3 3 3 0 0
0 0 0 0 0 0 0 0 0 0 0 0 0 6 6 10 13 19 19 16 13 10 13 13 13 16 16 16 6 6 3 3 3 3 3 3 3 0 0 0 3 3 3 3 3 3 3 0 0
0 0 0 0 0 0 0 0 0 0 0 0 0 3 6 6 6 16 16 19 13 10 16 10 16 16 19 13 6 6 6 6 6 3 3 3 3 3 0 0 3 3 3 3 3 3 0 0 0
0 0 0 0 0 0 0 0 0 0 0 0 3 3 6 6 6 16 13 13 13 13 13 19 13 13 16 10 6 6 6 3 3 3 3 3 3 3 0 0 0 3 3 3 3 3 3 0 0
0 0 0 0 0 0 0 0 0 0 0 0 0 3 6 6 10 10 13 13 13 10 16 13 13 13 10 6 6 13 6 3 6 3 3 3 3 3 3 3 3 3 6 3 0 0 0 0 0
0 0 0 0 0 0 0 0 0 0 0 0 3 3 6 6 10 10 10 13 13 10 10 13 16 10 6 6 10 6 10 10 3 3 3 3 3 3 3 3 3 3 3 3 0 0 0 0 0
0 0 0 0 0 0 0 0 0 0 0 0 3 0 6 10 10 10 10 10 10 13 6 13 16 6 6 10 10 6 10 10 10 10 3 3 3 6 3 3 3 3 3 3 3 0 0 0 0
0 0 0 0 0 0 0 0 0 3 0 0 3 3 3 10 10 6 6 6 10 10 10 10 13 13 10 6 10 13 13 13 10 10 10 3 3 3 3 3 3 3 3 3 3 3 3 3 0
0 0 0 0 0 0 0 0 0 3 0 0 0 3 3 6 6 6 6 10 6 6 6 6 6 6 6 6 10 10 10 10 10 6 6 6 3 3 3 3 3 3 3 3 3 6 6 3 0
0 0 0 0 0 0 0 0 0 0 0 0 0 0 0 0 3 6 6 10 6 6 6 6 10 10 6 10 10 6 10 10 6 6 6 3 3 3 3 3 3 3 3 3 3 3 6 3 3
0 0 0 0 0 0 0 0 0 0 0 0 0 0 0 0 0 6 6 6 6 6 6 10 10 10 10 6 6 3 6 6 6 6 10 6 6 6 3 3 6 3 3 6 3 3 3 3 0
0 0 0 0 0 0 0 0 0 0 0 0 0 0 0 0 0 3 6 6 6 6 6 6 10 10 10 6 3 3 6 6 6 10 10 10 10 6 3 3 6 6 3 3 3 3 3 3 0

GEFSSGP_con_cape1000_288.txt.gz
Probability
52 45 58 74 65 52 6 6 6 6 6 3 0 0 0 6 10 13 6 10 16 19 19 42 39 42 42 39 32 29 29 32 23 26 32 32 35 39 32 29 23 23 26 35 35 32 35 32 29
45 39 55 71 48 13 6 13 13 6 6 0 0 6 0 0 0 6 10 10 19 16 13 19 45 35 39 32 29 26 23 26 23 19 26 29 32 32 29 29 32 29 32 29 32 32 26 26 26
52 42 48 65 16 10 6 13 10 3 0 0 0 3 0 0 0 6 13 10 13 13 26 29 39 35 32 29 26 23 26 29 26 23 23 29 29 26 29 26 23 23 26 29 26 35 32 29 26
45 48 45 19 6 6 13 16 10 6 0 0 3 0 0 0 3 6 10 6 10 16 19 23 45 39 29 26 29 29 26 23 23 26 26 23 26 23 23 23 23 23 26 23 23 29 29 26 29
48 52 19 6 0 6 13 6 10 13 6 3 3 6 10 6 6 6 10 6 10 16 19 23 42 39 32 35 35 32 29 26 26 26 23 23 19 19 23 19 26 19 19 16 16 23 26 29 29
52 48 13 6 0 10 10 10 10 13 0 3 6 6 13 10 13 10 10 13 13 13 13 19 42 42 35 35 35 35 29 23 26 16 16 13 19 16 19 16 16 19 16 16 19 23 19 23 29
32 13 6 0 3 3 3 6 3 10 6 0 3 3 10 10 13 10 10 10 13 13 10 13 19 26 35 42 42 39 29 19 10 13 16 19 16 19 23 16 19 19 16 16 16 19 19 23 23
26 10 3 0 3 3 3 3 6 10 10 0 0 3 16 13 13 10 10 10 10 10 10 6 13 10 13 19 32 26 23 13 10 13 16 23 19 16 13 10 16 16 19 19 16 13 13 10 16
3 6 3 0 6 3 3 3 6 6 6 6 6 13 23 16 16 16 10 10 13 13 10 6 6 6 3 10 10 13 13 10 6 10 10 10 6 3 6 10 16 16 13 13 10 13 10 10 10
6 3 0 3 3 3 3 6 6 6 6 6 6 13 19 16 10 16 10 6 10 13 10 6 6 6 3 3 3 3 3 6 3 3 6 10 3 3 3 13 13 13 13 16 16 19 16 10 3
0 0 0 0 3 3 3 6 6 3 6 3 6 10 13 19 13 13 10 6 10 10 10 10 10 6 3 3 3 6 3 3 3 3 6 10 6 3 3 3 3 3 13 10 13 10 3 6 3
0 0 0 0 3 3 3 6 6 3 6 3 6 6 16 16 16 16 13 13 10 10 10 10 10 10 3 3 3 3 3 3 3 3 3 6 3 3 3 3 3 3 3 3 3 3 3 0 3
0 0 0 3 3 3 3 6 6 6 0 3 6 6 10 10 13 10 16 16 13 13 13 10 10 6 3 6 6 6 3 3 3 3 3 3 6 3 3 3 6 6 6 6 6 3 0 0 0
0 0 3 3 3 3 3 6 6 3 6 6 10 6 3 6 6 13 13 16 16 16 16 13 13 10 6 3 3 3 3 3 3 6 3 3 3 3 3 3 3 6 6 6 3 3 0 0 0
0 0 3 0 0 0 0 3 3 10 6 6 6 6 10 6 6 10 10 10 16 16 13 13 13 13 6 6 6 3 6 3 3 3 3 0 0 0 0 3 0 3 3 3 3 0 0 0 0
0 0 0 3 0 0 0 0 0 3 0 0 3 6 10 13 6 6 10 10 13 13 13 13 13 10 6 6 6 6 6 3 6 6 6 0 0 0 0 0 3 3 0 3 3 0 0 0 0
0 0 0 0 0 0 0 0 0 0 0 0 0 3 6 10 6 10 10 10 13 10 16 13 13 6 6 6 10 10 6 10 6 6 6 0 0 0 0 0 0 0 0 0 0 0 0 0 0
0 0 0 0 0 0 0 0 0 0 0 0 0 3 10 13 10 10 13 13 13 10 10 13 13 10 6 10 10 10 10 6 6 3 6 3 0 0 0 0 0 0 0 0 0 0 0 0 0
0 0 0 0 0 0 0 0 0 0 0 0 0 0 6 13 16 16 19 16 16 10 13 10 10 10 10 10 10 10 10 10 6 3 6 6 3 0 0 0 0 0 0 0 0 3 0 0 0
0 0 0 0 0 0 0 0 0 0 0 0 0 0 6 6 16 16 23 16 16 13 10 10 6 10 10 13 10 6 6 10 6 6 3 3 0 0 0 3 3 3 3 3 3 0 0 0 0
0 0 0 0 0 0 0 0 0 0 0 0 0 0 0 6 10 19 19 19 19 16 16 10 13 10 13 13 6 10 6 6 3 6 3 3 3 3 0 0 3 3 3 3 3 3 0 0 0
0 0 0 0 0 0 0 0 0 0 0 0 0 0 0 3 13 16 19 19 19 16 13 16 13 13 13 16 13 10 10 10 6 6 3 6 3 3 0 0 0 3 3 3 3 3 0 0 0
0 0 0 0 0 0 0 0 0 0 0 0 0 3 3 3 10 10 19 16 16 16 16 16 16 16 13 16 16 13 13 10 10 3 3 3 3 3 3 0 0 3 3 3 3 0 0 0 0
0 0 0 0 0 0 0 0 0 0 0 0 0 3 3 13 13 13 10 16 13 10 13 13 13 13 13 6 19 13 16 10 10 6 3 3 3 3 3 3 0 3 3 3 3 3 3 3 0
0 0 0 0 0 0 0 0 0 0 0 0 6 6 10 13 13 13 13 13 13 10 16 16 13 10 13 13 13 16 16 13 13 6 3 3 3 6 3 3 3 3 3 3 3 6 6 6 0
0 0 0 0 0 0 0 0 0 0 0 0 3 10 10 13 13 13 16 16 16 13 13 13 13 13 13 13 10 13 13 13 10 10 6 3 3 6 3 3 3 3 3 3 3 3 6 0 0
0 0 0 0 0 0 0 0 0 0 0 0 3 3 0 3 6 6 13 16 13 10 6 10 10 13 13 13 13 13 13 10 10 10 10 3 6 3 3 3 3 3 3 3 3 3 3 0 0
0 0 0 0 0 0 0 0 0 0 0 3 3 3 0 0 6 6 6 6 6 10 10 6 6 10 10 13 13 10 10 10 10 10 6 6 3 3 3 3 3 3 3 3 3 3 3 0 0
0 0 0 0 0 0 0 0 0 0 0 0 0 3 0 0 0 3 3 6 6 6 6 6 3 6 6 6 13 10 10 6 10 13 6 6 6 3 3 3 3 3 3 3 3 3 3 0 0
0 0 0 0 0 0 0 0 0 0 0 3 0 0 0 0 0 3 3 3 3 3 6 6 6 3 3 3 10 10 13 13 10 6 10 6 6 3 3 3 3 3 3 3 3 3 3 0 0

GEFSSGP_con_cape1000_294.txt.gz
Probability
52 39 29 19 6 0 0 0 0 0 0 0 0 0 0 0 3 0 3 10 10 16 29 48 52 42 35 42 45 52 42 39 42 39 39 39 29 26 23 23 32 26 32 32 29 29 39 35 32
39 29 16 6 0 0 0 0 0 0 0 0 0 0 0 3 3 3 6 10 10 10 23 35 42 48 39 42 45 45 39 35 42 32 32 39 32 32 29 32 32 32 29 26 26 32 29 29 35
35 23 13 3 0 0 0 0 0 0 0 0 0 0 0 3 3 3 6 10 10 13 16 45 45 39 39 35 35 32 32 39 35 29 35 29 32 32 32 32 29 26 26 26 32 32 26 26 29
3 3 6 0 0 0 0 0 0 0 0 0 0 0 0 3 3 6 10 10 10 10 13 39 48 42 35 32 35 32 29 32 32 35 26 26 26 26 23 23 19 13 19 23 29 29 32 32 29
3 3 3 0 0 0 0 0 0 3 0 0 0 0 0 6 6 6 6 10 10 13 26 35 45 42 35 39 35 32 29 29 32 29 23 23 23 26 23 13 10 13 16 13 23 23 26 32 32
3 0 0 0 0 0 0 0 0 0 0 0 6 0 0 10 6 6 6 6 10 6 26 39 48 42 42 35 32 32 29 32 29 29 19 26 23 23 19 16 10 10 13 16 16 23 19 23 32
3 0 0 0 0 0 0 0 0 0 0 0 0 0 0 3 6 6 6 6 10 6 19 32 29 32 48 39 39 35 32 26 23 13 13 16 19 23 16 23 13 13 10 13 19 19 23 23 19
0 0 0 0 0 0 0 3 3 3 3 0 0 0 0 3 6 6 6 6 3 3 6 19 10 23 19 26 42 32 26 29 19 19 13 13 16 13 13 13 13 16 13 10 16 16 23 26 19
0 0 0 0 0 0 3 6 6 6 3 6 6 0 0 3 3 6 6 6 6 3 6 10 6 6 6 6 23 23 19 16 13 6 10 3 3 3 6 6 10 16 16 13 6 10 13 16 19
0 0 0 0 0 0 0 3 3 0 0 3 6 3 3 3 3 6 6 6 6 6 3 6 6 6 6 6 3 3 6 3 3 3 3 3 3 3 6 6 13 16 16 13 10 6 3 6 0
0 0 0 3 0 0 0 3 0 0 0 0 0 6 3 3 3 6 6 6 6 6 6 6 6 6 3 3 3 3 3 3 3 3 3 3 3 3 3 3 6 6 6 3 3 3 6 0 0
0 0 0 0 3 0 0 0 0 0 0 0 0 3 3 3 3 3 6 6 6 10 10 3 3 3 3 3 3 3 3 3 3 3 3 3 3 3 3 3 3 3 0 0 0 0 0 0 0
0 0 3 0 0 0 0 0 0 0 3 6 3 3 3 3 3 3 6 6 6 6 6 6 3 3 3 3 3 3 3 3 3 3 3 3 3 0 0 0 0 3 0 0 0 0 0 0 0
0 0 0 0 0 0 0 0 0 0 3 0 3 3 0 0 0 0 3 6 6 6 6 6 3 3 3 3 3 3 3 3 3 3 3 3 0 0 0 0 0 0 0 0 0 0 0 0 0
0 0 0 0 0 0 0 0 0 3 0 0 0 0 3 3 3 3 3 10 6 6 6 6 3 3 3 3 3 3 3 3 3 3 3 3 0 0 0 3 0 0 0 0 0 0 0 0 0
0 0 0 0 0 0 0 0 0 3 0 0 0 0 0 0 3 3 6 6 3 6 6 6 6 3 3 3 3 3 3 3 3 0 0 3 0 0 0 0 0 0 0 0 0 0 0 0 0
0 0 0 0 0 0 0 0 0 3 0 0 0 0 0 0 0 6 6 6 6 6 10 10 6 6 6 3 6 3 3 3 3 0 0 0 0 0 0 0 0 0 0 0 0 0 0 0 0
0 0 0 0 0 0 0 0 0 0 0 0 0 0 0 0 0 3 3 3 6 3 10 6 6 6 6 3 3 0 0 3 0 0 0 0 0 0 0 0 0 0 0 0 0 0 0 0 0
0 0 0 0 0 0 0 0 0 0 0 0 0 0 0 0 0 0 0 6 3 6 0 3 6 6 3 0 3 3 0 0 0 0 0 0 0 0 0 0 0 0 0 0 0 0 0 0 0
0 0 0 0 0 0 0 0 0 0 0 0 0 0 0 0 0 6 3 3 3 6 3 3 3 3 0 0 3 3 3 0 0 0 0 0 0 0 0 0 0 0 0 0 0 0 0 0 0
0 0 0 0 0 0 0 0 0 0 0 0 0 0 0 0 0 6 6 6 3 3 3 3 3 0 0 0 0 0 0 0 0 0 0 0 0 0 0 0 0 0 0 0 0 0 0 0 0
0 0 0 0 0 0 0 0 0 0 0 0 0 0 0 0 6 3 6 6 0 6 3 3 3 3 0 0 0 6 0 0 0 3 0 0 0 0 0 0 0 0 0 0 0 0 0 0 0
0 0 0 0 0 0 0 0 0 0 0 0 3 3 3 3 3 3 6 6 3 3 6 3 0 0 0 0 6 3 3 3 0 0 0 0 0 0 0 0 0 0 0 0 0 0 0 0 0
0 0 0 0 0 0 0 0 0 0 0 0 0 3 3 3 3 3 3 6 3 3 3 3 0 0 0 0 3 3 3 3 0 0 0 0 0 0 0 0 0 0 0 0 0 0 0 0 0
0 0 0 0 0 0 0 0 0 0 0 0 0 0 0 0 0 3 3 3 0 0 6 6 3 3 0 0 0 3 3 3 3 3 3 0 0 0 0 0 0 0 0 0 0 0 0 0 0
0 0 0 0 0 0 0 0 0 0 0 0 0 0 0 0 0 0 0 0 3 0 0 0 0 0 0 0 0 0 0 3 3 3 3 3 3 3 0 0 0 0 0 0 0 0 0 0 0
0 0 0 0 0 0 0 0 0 0 0 0 0 0 0 0 0 0 0 0 0 0 0 0 0 0 0 0 0 0 3 3 3 0 0 3 3 3 0 0 0 0 0 0 0 0 0 0 0
0 0 0 0 0 0 0 0 0 0 0 0 0 0 0 0 0 0 0 0 0 0 0 0 0 0 0 0 0 0 0 0 3 3 0 3 3 3 3 0 0 0 0 0 0 0 0 0 0
0 0 0 0 0 0 0 0 0 0 0 0 0 0 0 0 0 0 0 0 3 3 0 0 0 0 0 0 0 0 0 0 0 3 3 0 3 3 3 0 0 0 0 0 0 0 0 0 0
0 0 0 0 0 0 0 0 0 0 0 0 0 0 0 0 0 0 0 0 3 3 0 0 0 0 0 0 0 0 0 0 0 0 3 3 0 3 3 3 0 0 0 0 0 0 0 0 0

GEFSSGP_con_cape1000_300.txt.gz
Probability
55 32 6 6 0 0 0 0 0 0 0 0 0 0 0 0 0 0 0 3 3 10 16 39 42 39 39 35 35 39 32 29 29 29 26 29 26 26 23 29 26 35 32 29 32 29 39 42 42
32 23 6 0 0 0 0 0 0 0 0 0 0 0 0 0 0 3 3 6 10 6 23 32 42 35 35 35 32 39 32 26 26 26 29 29 32 32 29 32 26 32 29 26 23 26 32 32 32
19 13 6 0 0 0 0 0 0 0 0 0 0 0 0 0 3 3 6 6 6 6 10 26 45 39 35 35 32 29 29 32 29 29 26 29 32 32 32 23 19 26 29 19 23 23 23 23 23
3 3 0 0 0 0 0 0 0 0 0 0 0 0 0 3 3 6 6 6 3 6 13 29 39 42 39 29 23 19 29 26 26 19 29 26 23 23 26 16 16 19 16 13 16 23 19 16 19
3 3 0 0 0 0 0 0 0 0 0 0 0 0 0 3 6 6 6 6 3 3 10 29 35 32 32 26 23 19 23 29 29 29 29 19 19 16 19 13 13 13 16 16 16 19 19 26 23
3 0 0 0 0 0 0 0 0 0 0 0 0 0 0 6 6 6 6 6 3 6 10 29 39 32 23 23 26 29 32 26 19 23 16 13 13 16 19 13 16 16 13 19 19 23 26 16 19
0 0 0 0 0 0 0 0 0 0 0 0 0 0 0 6 6 6 6 6 3 3 6 16 19 23 35 29 32 29 29 26 16 10 13 13 16 16 13 13 13 13 13 19 23 29 23 23 26
0 0 0 0 0 0 0 0 0 0 0 0 0 0 0 3 6 6 6 6 3 3 10 10 10 10 13 13 29 29 26 19 16 13 13 13 10 10 13 13 13 6 10 16 23 13 19 23 19
0 0 0 0 0 0 0 0 0 0 0 3 0 0 0 6 6 6 6 6 6 3 6 10 10 10 6 3 10 13 16 10 6 3 6 3 3 3 6 6 16 6 6 13 19 19 23 23 19
0 0 0 0 0 0 0 0 0 0 0 0 0 0 6 6 6 6 6 6 6 10 10 6 10 3 3 3 3 6 3 3 3 3 3 3 3 3 3 6 10 10 3 6 10 13 3 0 0
0 0 0 0 0 3 0 0 0 0 0 0 0 0 6 6 10 6 6 6 6 10 6 6 3 3 3 3 3 3 3 3 3 3 3 3 3 3 3 3 6 6 3 3 3 3 0 0 0
0 0 0 3 3 0 0 0 0 0 0 0 0 0 6 6 6 6 6 6 10 6 6 6 3 3 3 3 3 3 3 3 3 3 3 0 0 0 3 3 3 3 0 0 0 0 0 0 0
0 0 0 0 0 0 0 0 0 0 0 0 0 3 6 6 6 6 6 6 6 6 6 6 3 3 3 3 3 3 3 3 3 3 3 0 0 0 3 3 3 0 0 0 0 0 0 0 0
0 0 0 0 0 0 0 0 0 0 0 0 0 3 6 6 6 6 6 10 10 6 6 6 3 3 3 3 3 3 3 3 3 3 3 0 0 0 0 3 0 0 0 0 0 0 0 0 0
0 0 0 0 0 0 0 0 0 0 0 0 0 0 6 6 3 3 3 6 6 6 6 6 3 3 3 3 3 3 3 3 3 3 0 3 0 0 0 0 0 0 0 0 0 0 0 0 0
0 0 0 0 0 0 0 0 0 0 0 0 0 0 0 0 3 3 3 3 3 3 6 6 6 3 3 3 3 3 3 3 3 0 0 0 0 0 0 0 0 0 0 0 0 0 0 0 0
0 0 0 0 0 0 0 0 0 0 0 0 0 0 0 0 0 0 3 3 3 3 3 6 6 3 3 3 3 3 3 3 3 0 0 0 0 0 0 0 0 0 0 0 0 0 0 0 0
0 0 0 0 0 0 0 0 0 0 0 0 0 0 0 0 0 0 0 0 0 3 3 6 3 3 3 3 3 3 3 3 3 3 0 0 0 0 0 0 0 0 0 0 0 0 0 0 0
0 0 0 0 0 0 0 0 0 0 0 0 0 0 0 0 0 0 0 0 0 0 0 6 3 3 3 3 3 3 3 3 3 3 0 0 0 0 0 0 0 0 0 0 0 0 0 0 0
0 0 0 0 0 0 0 0 0 0 0 0 0 0 0 0 0 0 0 0 0 0 0 0 0 3 3 3 3 3 0 0 0 0 0 0 0 0 0 0 0 0 0 0 0 0 0 0 0
0 0 0 0 0 0 0 0 0 0 0 0 0 0 0 0 0 0 0 0 3 3 0 0 0 0 3 3 3 0 0 0 0 0 0 0 0 0 0 0 0 0 0 0 0 0 0 0 0
0 0 0 0 0 0 0 0 0 0 0 0 0 0 0 0 0 0 0 0 3 0 0 0 0 0 0 3 3 0 0 0 0 0 0 0 0 0 0 0 0 0 0 0 0 0 0 0 0
0 0 0 0 0 0 0 0 0 0 0 0 0 0 0 0 0 0 0 0 3 0 0 0 0 0 0 3 3 0 0 0 0 0 0 0 0 0 0 0 0 0 0 0 0 0 0 0 0
0 0 0 0 0 0 0 0 0 0 0 0 0 0 0 0 0 0 0 0 0 0 0 0 0 0 0 0 0 0 0 0 0 0 0 0 0 0 0 0 0 0 0 0 0 0 0 0 0
0 0 0 0 0 0 0 0 0 0 0 0 0 0 0 0 0 0 0 0 0 0 0 0 0 0 3 0 0 0 0 0 0 0 0 0 0 0 0 0 0 0 0 0 0 0 0 0 0
0 0 0 0 0 0 0 0 0 0 0 0 0 0 0 0 0 0 0 0 0 0 0 0 0 0 0 0 0 0 0 0 0 0 0 0 0 0 0 0 0 0 0 0 0 0 0 0 0
0 0 0 0 0 0 0 0 0 0 0 0 0 0 0 0 0 0 0 0 0 0 0 0 0 0 0 0 0 0 0 0 0 0 0 0 0 0 0 0 0 0 0 0 0 0 0 0 0
0 0 0 0 0 0 0 0 0 0 0 0 0 0 0 0 0 0 0 0 0 0 0 0 0 0 0 0 0 0 0 0 0 0 0 0 0 0 0 0 0 0 0 0 0 0 0 0 0
0 0 0 0 0 0 0 0 0 0 0 0 0 0 0 0 0 0 0 0 0 0 0 0 0 0 0 0 0 0 0 0 0 0 0 0 0 0 0 0 0 0 0 0 0 0 0 0 0
0 0 0 0 0 0 0 0 0 0 0 0 0 0 0 0 0 0 0 0 0 0 0 0 0 0 0 0 0 0 0 0 0 0 0 0 0 0 0 0 0 0 0 0 0 0 0 0 0